GFSWCAN_sfc_wetblb_021.txt.gz
Wetbulb
43.08 43.82 44.04 44.62 45.79 45.93 45.74 46.38 46.39 46.58 46.96 47.14 47.39 47.53 47.44 47.02 46.06 40.17 37.15 37.93 33.59 28.42 29.62 31.36 31.67 29.66 28.36 29.45 25.99 24.69 27.50 26.91 24.27 23.47 22.27 19.96 15.60 17.08 13.75 16.64 15.82 14.18 11.20 11.17 10.05 2.79 6.28 22.01 20.88 17.76 20.89 21.32 21.66 21.58
42.19 43.18 43.49 44.12 45.08 45.45 45.77 45.89 46.00 46.20 46.61 46.79 47.09 47.02 47.17 47.14 46.83 43.90 37.18 38.17 36.90 30.85 29.44 33.45 34.05 34.31 33.42 32.88 27.27 23.83 26.54 23.21 26.40 20.63 16.36 17.57 12.30 12.48 11.28 8.66 18.42 14.97 19.14 13.92 16.76 15.47 22.59 23.31 23.74 25.90 24.58 22.58 23.56 23.92
41.33 42.08 42.63 43.24 44.36 44.50 45.02 45.55 45.58 45.86 46.44 46.63 46.62 46.79 46.67 46.76 46.93 44.92 39.25 36.57 36.43 30.14 28.53 29.17 29.45 34.27 36.00 33.97 33.84 26.32 24.21 27.13 26.36 26.51 18.69 15.47 10.34 17.82 8.09 9.96 12.51 17.48 19.33 15.98 16.57 19.38 20.54 23.13 25.17 24.59 25.18 25.13 25.84 25.93
40.32 41.27 41.81 42.35 43.33 43.64 44.12 44.92 45.37 45.52 45.59 45.89 46.20 46.45 46.57 46.59 46.62 45.78 39.43 39.66 36.88 32.06 22.45 25.05 30.55 30.77 34.84 34.01 32.24 31.57 29.41 28.36 28.06 26.60 20.03 14.03 10.75 21.93 14.01 17.15 16.24 19.00 19.49 14.92 14.83 20.43 20.52 23.12 24.45 25.82 25.58 25.03 24.33 24.42
39.79 40.45 40.61 41.50 42.09 43.03 43.53 44.13 44.50 45.00 45.24 45.57 45.69 45.87 46.07 46.21 46.20 44.96 42.37 40.53 39.86 31.66 21.74 20.33 25.36 30.32 32.66 32.26 30.54 30.02 29.33 27.28 25.52 20.59 15.08 13.85 18.78 18.13 15.29 18.89 14.86 20.62 20.37 16.70 14.56 23.22 23.34 24.56 25.17 26.62 25.23 25.07 24.34 23.35
39.08 39.88 40.32 40.09 40.74 42.58 43.07 43.82 43.71 44.42 44.55 44.67 45.00 44.71 45.09 45.36 45.76 42.08 33.00 40.47 41.01 39.13 31.14 19.98 27.24 24.87 29.24 30.47 29.08 27.87 28.03 26.19 25.05 22.45 19.65 20.63 24.45 21.98 9.32 7.26 24.17 26.11 24.08 25.36 22.25 25.83 25.88 27.23 26.76 25.38 24.53 24.38 24.56 23.20
38.79 39.18 40.02 39.93 40.21 42.13 42.83 43.32 43.46 43.63 43.16 44.26 44.10 44.32 44.70 44.42 42.60 33.76 32.12 36.78 42.61 40.18 31.09 24.09 16.79 25.03 27.94 27.08 23.89 26.64 26.81 26.06 24.82 23.20 19.79 22.59 22.42 25.00 19.74 11.01 25.63 24.94 24.81 24.22 25.39 24.82 22.87 23.65 24.03 24.54 24.07 23.97 22.15 20.53
38.52 38.96 39.68 39.43 40.14 42.19 42.61 42.71 43.19 43.29 42.88 43.03 43.42 42.98 42.26 42.32 42.02 35.28 38.56 41.66 42.50 34.36 31.67 24.93 14.52 21.95 28.50 23.09 24.47 27.09 25.02 26.27 26.96 26.53 24.44 19.70 24.33 25.71 17.02 23.12 25.48 25.91 24.14 23.44 24.65 25.41 27.48 25.81 22.63 23.16 20.96 18.32 16.49 18.12
38.94 38.82 39.68 39.51 41.81 42.09 42.20 42.26 42.55 42.95 43.06 42.99 42.73 42.36 38.48 36.47 32.32 33.78 41.67 41.67 39.71 33.13 26.11 23.45 13.91 10.13 27.26 28.08 28.37 27.72 29.43 22.47 28.16 24.05 22.81 25.12 20.98 17.97 21.69 24.06 23.87 25.27 24.87 25.84 27.32 21.16 21.84 20.82 23.59 19.99 17.52 12.83 16.12 18.60
38.53 38.90 39.40 39.89 40.02 41.99 41.82 42.04 42.18 42.12 42.15 41.86 37.21 32.12 28.45 31.95 38.46 39.84 36.11 31.61 30.93 30.09 30.05 23.25 14.04 8.78 24.97 21.80 18.03 23.21 26.56 23.34 18.94 22.28 25.61 22.46 21.51 25.52 26.40 22.57 24.71 26.12 26.26 26.07 16.22 15.34 7.54 14.07 19.46 18.70 16.84 19.01 18.98 16.84
38.30 38.93 39.46 40.18 39.08 41.23 41.66 41.85 42.16 41.89 41.34 32.96 29.74 27.00 31.65 37.98 33.19 28.27 23.30 23.49 24.30 21.66 26.77 13.64 13.27 14.11 20.77 13.46 14.84 24.30 18.77 21.51 16.05 16.68 18.46 17.08 13.23 24.10 27.11 24.84 27.54 25.78 25.28 23.29 24.73 25.89 19.33 18.87 19.08 17.91 14.88 12.85 9.99 7.88
37.86 39.23 39.38 39.11 40.82 41.38 41.14 41.02 41.44 35.61 33.40 33.15 33.17 34.91 34.05 30.40 26.53 22.26 20.72 16.79 17.71 13.26 11.99 20.88 16.97 17.13 14.48 18.47 14.58 19.93 16.30 17.96 13.67 17.78 16.52 13.16 17.22 24.57 19.89 22.96 26.36 27.12 26.00 19.27 17.43 20.36 12.80 12.63 8.38 8.60 7.13 4.69 1.27 -0.08
36.28 38.99 38.52 38.32 39.54 40.33 40.36 40.74 38.92 38.75 36.90 32.74 27.87 24.69 25.23 23.97 18.30 15.37 11.83 13.12 8.74 2.69 12.16 16.11 12.30 18.20 18.11 21.66 19.17 17.69 10.93 10.36 10.97 14.48 12.85 11.25 21.70 15.88 12.84 12.84 13.09 3.22 5.07 8.10 3.66 4.67 3.78 0.65 -1.13 -1.93 -2.53 -4.09 -4.92 -8.00
36.40 36.92 37.51 37.32 36.97 37.25 37.35 37.80 38.87 37.03 29.73 22.66 21.02 16.23 17.34 14.55 16.98 12.10 8.62 8.46 12.46 10.35 13.60 12.48 17.79 15.80 15.04 18.61 20.64 14.78 16.65 13.97 10.46 7.73 5.28 18.03 6.50 -1.88 -0.31 -1.77 -1.48 -1.57 -1.86 1.10 -1.88 -1.30 -2.75 -3.75 -6.78 -7.68 -7.27 -8.02 -8.25 -10.34
35.48 35.55 35.52 35.21 35.88 35.90 36.24 36.85 37.38 35.02 26.03 21.79 21.26 14.17 14.13 9.18 -0.43 -6.61 -8.24 1.35 6.89 8.86 18.03 14.93 14.94 21.26 16.81 18.91 20.59 17.18 11.54 9.98 10.80 7.23 6.74 0.42 -3.68 -5.42 -4.86 -7.57 -9.44 -7.40 -6.44 -8.56 -10.68 -7.63 -7.35 -7.18 -8.51 -12.80 -14.54 -14.32 -13.53 -14.49
33.82 32.50 31.42 34.99 35.83 35.55 35.31 35.18 33.88 31.76 27.50 22.68 19.30 13.59 -0.01 3.25 1.15 0.26 -1.55 5.50 10.20 18.40 15.84 18.03 14.08 16.28 16.61 17.71 15.15 13.14 10.36 7.25 6.70 1.06 -4.68 -3.77 -8.33 -9.37 -10.93 -10.62 -10.00 -8.76 -9.49 -10.82 -10.81 -9.99 -7.01 -10.01 -9.31 -13.47 -19.59 -20.45 -20.60 -17.12
30.27 17.70 31.09 33.31 32.42 31.25 31.22 24.73 26.85 22.24 16.09 17.00 11.53 -12.57 -4.32 0.15 6.93 4.84 4.97 11.66 16.05 17.97 12.87 14.21 13.27 12.51 16.16 10.70 9.71 4.24 2.85 -0.87 -4.63 -4.72 -5.58 -6.62 -7.42 -9.50 -6.74 -10.67 -14.13 -12.87 -12.95 -9.20 -10.12 -10.94 -14.10 -14.13 -13.56 -13.25 -13.42 -19.70 -23.27 -22.21
16.77 22.10 30.19 30.39 25.33 20.00 9.58 11.87 17.89 17.16 10.36 7.48 10.35 -1.63 -8.24 -10.61 -6.52 -3.10 1.05 8.45 11.51 13.13 13.70 12.96 17.17 14.27 12.70 11.29 11.13 1.62 0.18 -1.26 -4.42 -4.56 -5.68 -6.40 -8.12 -12.24 -13.42 -14.36 -15.25 -14.51 -11.20 -11.74 -11.27 -14.28 -15.03 -13.52 -12.45 -16.60 -19.32 -23.74 -21.04 -19.42
23.01 23.27 29.17 29.03 22.61 6.72 5.12 5.71 7.23 6.38 -1.06 -3.44 3.25 2.71 2.11 -0.21 1.19 1.76 3.09 7.87 9.95 11.09 12.91 13.97 12.72 7.38 -1.20 -5.08 -8.06 -4.22 -4.42 -4.49 -4.03 -4.19 -5.78 -7.24 -7.36 -9.00 -9.82 -11.10 -12.55 -14.91 -16.11 -21.80 -19.78 -16.89 -18.48 -18.82 -16.13 -16.86 -16.98 -15.86 -15.38 -21.74
29.05 27.50 25.98 26.57 22.38 5.14 -2.00 1.05 0.87 -0.16 -6.82 -2.18 -2.37 -2.26 1.45 2.13 1.44 0.21 2.19 4.39 9.61 5.69 -2.66 -3.49 -10.23 -11.38 -10.44 -9.84 -9.80 -10.44 -8.82 -6.77 -5.85 -3.67 -3.22 -5.86 -8.10 -9.45 -12.44 -12.52 -12.40 -15.79 -16.02 -16.82 -16.03 -15.21 -18.07 -18.13 -19.36 -19.20 -19.17 -14.32 -12.73 -11.76
20.60 22.03 20.96 12.22 10.47 5.38 -1.53 -2.69 -5.27 -6.17 -6.60 -9.21 -9.71 -0.67 -0.62 1.21 -2.16 -2.01 -1.70 0.41 -4.79 -14.43 -13.12 -17.92 -16.16 -12.66 -10.91 -9.75 -10.05 -12.26 -9.62 -11.00 -9.52 -9.90 -9.39 -8.28 -10.01 -11.48 -14.63 -16.07 -16.48 -17.08 -18.42 -22.56 -20.66 -19.61 -16.47 -16.41 -17.81 -20.86 -19.59 -17.76 -17.41 -16.77
15.84 19.31 4.42 11.13 7.02 2.51 0.04 0.07 -4.91 -4.48 -5.80 -9.13 -5.56 -5.70 -8.96 -7.78 -5.68 -6.56 -2.07 -10.03 -13.92 -16.75 -18.25 -17.01 -16.54 -16.65 -16.29 -14.22 -13.60 -12.98 -13.03 -11.38 -7.69 -7.20 -7.37 -7.95 -10.37 -11.45 -14.60 -18.72 -16.70 -18.72 -16.54 -17.62 -17.87 -18.90 -20.04 -21.36 -21.89 -22.58 -22.83 -22.65 -22.51 -23.32
13.34 11.84 5.26 3.28 -0.02 -2.60 -5.99 -0.31 -3.70 -2.48 -4.09 -4.90 -3.52 -2.43 -7.84 -8.16 -7.96 -1.83 -12.49 -14.11 -15.99 -13.22 -17.55 -18.89 -16.35 -16.29 -16.86 -15.35 -13.85 -11.96 -11.85 -11.68 -10.81 -11.38 -10.74 -11.42 -11.59 -12.25 -12.27 -14.28 -15.28 -17.17 -19.59 -19.57 -25.50 -25.90 -23.59 -19.45 -21.16 -22.02 -23.27 -22.14 -22.92 -21.80
5.84 -4.77 -4.91 -8.08 -5.65 -9.19 -4.18 -3.85 -0.13 -1.44 -4.44 -7.84 -5.68 -7.58 -12.43 -11.79 -7.23 -8.34 -16.64 -16.88 -15.60 -12.97 -15.17 -16.25 -15.68 -14.03 -10.95 -11.07 -12.30 -13.19 -14.76 -14.14 -11.16 -12.46 -16.15 -11.96 -13.38 -17.50 -21.64 -23.87 -26.37 -29.14 -26.53 -28.24 -26.71 -26.51 -25.32 -24.14 -19.39 -21.09 -20.71 -19.35 -16.76 -13.01
-5.99 -16.06 -12.29 -16.15 -10.72 -10.62 -11.09 -11.09 -9.50 -6.45 -10.57 -9.99 -9.70 -9.76 -12.39 -10.82 -10.12 -15.27 -15.97 -15.68 -14.35 -14.94 -16.05 -18.35 -19.61 -17.73 -19.79 -17.74 -12.75 -13.05 -16.61 -16.04 -12.44 -12.34 -17.96 -26.09 -26.44 -25.41 -23.58 -26.46 -26.55 -26.93 -29.45 -24.88 -24.14 -25.39 -24.81 -25.23 -20.98 -16.25 -10.35 -9.80 -9.65 -10.28
-21.30 -19.93 -18.73 -21.19 -17.65 -16.04 -15.40 -13.31 -13.41 -14.89 -11.10 -11.85 -15.22 -13.48 -13.87 -11.00 -16.43 -21.35 -20.67 -18.50 -17.60 -17.11 -17.29 -19.00 -23.19 -21.29 -15.97 -15.31 -15.19 -12.88 -14.54 -21.73 -22.62 -16.50 -19.17 -29.83 -26.77 -24.28 -26.80 -23.00 -22.09 -17.16 -25.91 -26.06 -24.41 -24.21 -21.94 -11.77 -11.05 -10.04 -9.07 -8.21 -6.77 -8.45
-22.43 -23.15 -19.59 -12.98 -15.59 -16.24 -14.09 -11.99 -12.25 -15.04 -19.22 -20.18 -21.23 -14.67 -12.82 -20.34 -22.55 -21.90 -17.23 -14.40 -15.46 -14.44 -13.48 -14.31 -17.74 -18.79 -17.60 -15.45 -13.34 -14.23 -14.84 -19.75 -16.82 -15.09 -19.57 -25.17 -25.83 -26.54 -21.98 -20.29 -18.90 -15.35 -19.12 -20.04 -19.32 -17.23 -14.15 -12.69 -10.22 -8.28 -7.93 -7.63 -8.49 -9.57
-22.44 -24.00 -24.88 -20.44 -19.01 -19.37 -20.23 -20.89 -23.71 -25.80 -23.98 -23.91 -20.14 -22.11 -23.17 -23.74 -24.31 -17.01 -13.12 -10.48 -11.90 -12.40 -12.09 -12.07 -14.21 -14.93 -15.10 -12.40 -11.85 -10.17 -9.74 -9.18 -15.64 -17.86 -16.11 -14.27 -14.45 -12.65 -13.31 -11.82 -12.22 -2.39 -8.86 -10.88 -10.21 -9.78 -11.55 -11.36 -10.92 -10.66 -10.08 -9.72 -9.04 -9.23
-22.33 -22.45 -22.21 -18.55 -19.67 -22.89 -27.65 -26.56 -26.80 -26.39 -26.26 -27.72 -20.41 -19.93 -19.20 -14.97 -15.15 -15.85 -13.17 -11.64 -11.16 -11.70 -11.46 -11.16 -9.62 -8.25 -10.28 -9.19 -8.01 -8.50 -8.07 -8.48 -10.31 -12.29 -12.72 -12.25 -10.03 -8.83 -6.35 -7.61 -8.93 -10.31 -12.88 -16.50 -9.16 -3.25 -6.20 -9.31 -10.81 -11.67 -11.67 -12.04 -9.44 -9.17
-23.36 -23.85 -20.09 -20.30 -23.40 -26.88 -27.85 -29.63 -27.30 -27.06 -25.08 -25.10 -24.02 -14.37 -14.26 -13.22 -11.48 -9.63 -10.53 -10.51 -10.87 -11.18 -11.46 -10.11 -9.94 -10.04 -11.33 -11.72 -11.54 -9.93 -11.44 -9.86 -9.98 -12.78 -15.19 -14.52 -12.96 -9.02 -8.75 -9.21 -9.07 -8.77 -9.93 -13.43 -12.36 -12.03 -6.76 -8.49 -9.04 -13.21 -11.72 -13.91 -14.38 -11.58
-23.03 -24.69 -21.42 -20.80 -23.96 -25.00 -26.98 -29.03 -27.28 -25.89 -24.26 -21.28 -19.64 -17.49 -19.10 -16.89 -11.91 -6.42 -8.04 -8.46 -8.82 -9.42 -10.09 -11.11 -10.54 -11.48 -12.91 -13.20 -13.68 -14.49 -13.72 -11.60 -11.17 -11.56 -11.17 -10.77 -10.12 -9.76 -9.66 -9.21 -8.36 -10.91 -13.91 -16.40 -17.76 -19.26 -16.67 -16.70 -19.08 -17.79 -18.64 -18.32 -17.32 -14.23
-23.27 -30.71 -26.95 -24.56 -24.37 -24.87 -27.96 -25.61 -26.29 -23.18 -22.14 -19.70 -20.47 -19.71 -18.86 -17.44 -17.72 -11.42 -8.66 -8.99 -10.36 -11.85 -10.98 -12.10 -13.84 -13.59 -13.13 -14.24 -14.04 -13.74 -9.89 -11.24 -11.44 -10.55 -11.75 -9.08 -9.12 -8.28 -7.50 -7.01 -10.38 -17.83 -15.60 -13.69 -15.82 -17.88 -18.83 -21.78 -22.14 -23.58 -21.76 -21.25 -21.19 -20.70
-24.97 -23.85 -22.43 -21.62 -22.81 -22.29 -22.71 -24.14 -20.83 -20.40 -20.06 -21.14 -19.78 -20.96 -22.36 -17.87 -18.10 -12.19 -9.34 -7.73 -10.17 -12.02 -12.66 -12.45 -11.32 -10.50 -12.08 -13.15 -13.75 -11.73 -13.34 -15.18 -13.24 -5.54 -5.81 -5.25 -6.43 -5.62 -7.07 -12.47 -13.56 -15.91 -18.59 -21.24 -20.67 -21.82 -21.91 -23.18 -22.60 -23.22 -23.48 -23.37 -22.92 -22.40

GFSWCAN_sfc_wetblb_024.txt.gz
Wetbulb
40.36 40.70 41.90 43.27 44.16 44.62 44.81 46.00 46.09 46.40 46.62 47.00 47.62 48.10 47.50 46.64 45.38 39.65 36.72 38.65 34.29 29.80 30.72 31.10 32.03 30.19 29.80 32.90 28.67 26.66 28.37 26.95 26.61 25.71 26.30 23.11 22.05 19.37 17.78 18.77 17.23 18.02 17.76 13.24 15.39 16.18 15.90 22.37 21.59 19.89 23.01 22.09 22.89 22.20
40.11 40.12 40.99 42.19 43.49 44.08 44.61 45.61 45.89 46.11 46.37 46.40 46.71 47.18 47.32 47.24 46.40 42.38 34.93 37.66 36.88 30.79 29.64 33.54 34.16 33.80 33.65 34.95 30.30 27.78 29.87 26.08 28.70 25.61 23.85 21.45 16.82 15.90 14.64 13.30 18.77 16.77 19.91 16.28 19.53 18.39 22.52 24.23 23.73 25.63 25.33 22.89 22.67 23.17
39.36 39.62 40.13 41.28 42.42 43.37 43.89 45.03 45.56 45.61 45.98 46.16 46.34 46.72 47.08 47.18 47.13 43.82 37.54 35.64 34.29 26.34 29.15 29.02 29.38 33.92 35.98 34.49 34.71 27.97 26.15 28.98 27.93 28.28 22.83 20.62 17.03 18.83 10.67 12.60 14.16 17.95 19.97 16.83 17.58 19.43 21.20 23.50 25.12 24.65 24.88 25.07 25.57 25.40
38.62 39.10 39.72 40.65 41.61 42.40 43.05 43.74 44.66 45.12 45.54 45.66 45.98 46.47 46.71 46.88 46.92 44.09 37.87 38.74 34.89 29.01 20.22 26.16 30.65 30.58 34.81 34.57 32.42 32.20 30.16 28.95 28.10 27.24 22.53 18.63 16.08 22.74 15.98 18.97 17.95 20.18 19.55 15.55 15.97 20.18 21.61 23.66 24.31 26.20 25.50 25.25 24.02 24.05
38.15 38.67 39.25 40.24 40.92 41.50 42.28 42.85 43.58 44.18 44.81 45.34 45.53 45.94 46.21 46.41 46.61 44.51 41.44 39.71 39.28 32.36 23.54 22.47 26.48 29.93 32.22 32.20 30.57 29.98 29.45 27.63 26.17 22.06 18.46 16.07 20.80 19.19 17.53 19.39 15.43 20.69 19.25 17.25 15.29 23.38 23.63 24.43 26.67 26.75 25.06 24.97 24.30 23.50
38.19 38.27 38.99 39.58 40.21 40.83 41.14 42.05 42.78 43.50 44.25 45.05 45.23 45.19 45.57 45.84 45.92 41.57 33.59 39.96 40.33 39.06 29.67 21.20 26.61 24.74 28.69 29.79 28.25 27.71 28.10 26.63 25.54 23.55 20.85 21.66 24.48 22.14 12.04 11.11 23.43 22.75 24.06 25.51 23.23 25.11 25.18 26.41 26.30 25.54 24.68 24.34 24.14 22.70
37.90 37.92 38.63 39.17 39.84 40.32 40.55 41.05 42.38 42.96 43.50 44.36 44.66 45.17 45.04 45.35 42.17 34.61 31.62 35.20 42.51 39.80 31.05 23.73 18.61 24.11 27.96 26.18 24.53 25.92 26.71 25.77 24.84 22.46 19.51 22.40 22.28 23.30 13.58 11.32 26.36 24.86 24.65 24.54 25.64 24.48 22.72 24.05 25.06 24.80 24.34 24.09 21.65 19.88
36.85 37.72 38.33 38.91 39.38 39.94 40.43 40.14 41.87 42.71 43.31 43.37 43.89 44.41 43.73 44.58 40.69 34.80 37.80 42.06 42.02 33.53 31.69 24.67 17.83 22.79 27.82 24.96 23.53 26.19 23.61 23.72 23.34 24.34 21.93 19.70 23.12 23.13 13.26 22.90 26.13 25.84 24.88 23.77 24.43 24.78 27.48 24.64 22.47 23.12 20.28 18.62 16.92 18.82
36.77 38.46 38.64 38.58 38.82 39.55 40.14 40.01 41.42 42.54 43.27 43.13 43.06 43.38 39.20 34.02 31.76 33.57 40.82 40.73 37.86 33.79 26.11 25.29 17.00 13.05 27.11 27.36 26.18 25.20 27.38 21.05 26.65 21.87 22.03 23.65 20.44 17.90 21.35 23.30 24.35 24.41 24.08 24.61 22.32 21.35 21.50 20.20 23.36 19.95 17.60 13.66 17.44 19.19
36.59 37.51 38.97 38.87 38.83 39.34 39.72 40.09 41.46 42.60 43.13 42.97 38.47 31.85 27.41 32.72 39.71 40.80 36.31 31.24 30.11 29.51 29.59 21.87 11.85 9.32 25.56 21.75 21.12 19.24 21.20 18.93 18.71 21.30 24.65 22.44 19.12 24.74 26.65 22.64 24.26 25.44 24.20 22.82 16.20 15.98 8.48 12.51 19.45 20.32 17.31 19.58 20.47 20.51
36.26 36.87 38.61 39.09 39.06 39.33 39.19 41.22 41.64 42.65 42.21 33.10 29.29 26.92 32.52 38.98 29.57 26.33 25.66 23.15 25.50 22.27 27.35 20.99 16.12 15.91 20.00 14.29 17.43 24.76 20.71 22.38 16.56 15.01 16.48 10.90 8.45 23.85 27.91 23.54 26.29 24.97 24.71 22.50 24.40 24.88 19.12 19.06 18.68 18.19 16.50 16.56 14.58 9.77
35.83 38.40 38.70 39.16 39.18 39.90 38.71 42.23 42.36 35.39 32.83 32.54 32.30 34.98 34.12 28.85 21.82 19.03 18.66 20.23 15.40 14.72 12.25 17.67 17.93 15.17 14.84 18.09 17.08 22.38 18.89 18.71 11.53 12.51 13.36 7.04 16.15 21.83 17.77 22.67 25.65 23.35 19.09 17.71 16.04 19.66 14.57 14.96 9.59 9.70 6.88 5.08 2.00 1.70
37.90 38.68 38.33 38.34 39.96 40.38 39.48 42.24 39.83 39.38 36.41 32.39 28.41 26.19 23.99 24.13 17.32 15.95 13.02 8.76 9.31 0.98 8.30 15.29 13.09 17.51 17.93 20.11 16.08 14.89 14.88 13.52 14.14 15.19 11.51 11.82 16.73 9.23 4.28 4.92 7.15 4.86 4.03 4.73 3.09 4.10 4.43 1.25 -0.37 -1.76 -1.53 -3.13 -3.57 -5.22
36.72 37.90 38.76 37.77 39.33 41.95 42.22 41.24 39.56 36.72 30.56 23.72 21.55 16.31 17.01 15.61 12.78 14.70 12.41 4.67 9.90 7.76 15.83 11.46 17.53 15.54 11.89 14.92 18.46 10.05 11.66 8.94 4.18 1.92 3.89 8.84 -1.10 -3.05 -1.38 -2.21 -5.15 0.05 -4.19 -0.12 -2.75 -1.16 -2.00 -3.23 -6.11 -7.04 -7.11 -6.34 -6.63 -8.24
36.00 36.45 36.67 36.64 37.31 37.04 38.39 38.73 37.14 32.06 24.14 18.60 17.20 10.88 10.73 5.42 -3.72 -8.91 -9.42 -0.70 3.71 4.85 14.70 12.66 11.61 19.44 13.23 16.38 18.38 13.39 9.27 6.11 4.95 3.76 0.61 -4.91 -5.36 -6.31 -6.01 -8.02 -8.56 -7.61 -7.39 -9.47 -11.12 -8.17 -6.68 -7.51 -8.92 -12.92 -15.20 -11.78 -9.96 -10.17
33.27 33.03 32.62 35.15 36.28 37.13 37.09 35.19 33.45 30.46 23.36 18.56 12.19 6.13 -0.79 2.49 -0.94 -2.56 -4.50 4.59 11.80 15.72 13.56 15.52 11.43 13.22 12.26 15.53 14.23 12.87 10.83 8.04 5.07 -9.32 -10.29 -6.68 -10.68 -10.10 -11.69 -12.39 -13.06 -13.61 -15.34 -14.38 -12.24 -11.67 -8.59 -9.16 -10.20 -14.44 -16.53 -13.80 -11.70 -12.26
30.66 19.84 32.48 32.35 32.32 31.18 31.57 25.77 27.59 18.79 15.88 16.34 1.78 -14.40 -9.71 -4.47 1.24 -0.06 2.63 10.86 16.83 19.50 14.73 17.91 15.09 14.75 15.91 10.65 8.53 7.10 5.54 -3.92 -7.82 -6.85 -4.55 -6.34 -9.40 -11.54 -11.22 -14.56 -12.97 -13.52 -13.52 -17.28 -17.80 -14.52 -17.18 -15.69 -14.16 -12.64 -11.33 -13.26 -12.89 -13.69
20.53 22.50 30.85 31.06 23.71 20.98 9.70 11.44 16.84 16.18 9.03 6.49 8.14 -3.69 -8.47 -7.80 -7.17 -4.36 1.31 9.65 15.47 15.45 16.42 16.01 18.75 13.73 12.50 9.61 1.61 -3.60 -1.31 -1.73 -0.87 -3.04 -5.06 -7.12 -8.08 -8.74 -9.04 -9.68 -11.75 -13.04 -13.48 -12.97 -12.76 -13.74 -10.78 -9.21 -10.16 -12.88 -14.05 -17.02 -15.36 -20.00
24.01 26.84 29.56 29.00 21.21 5.54 4.85 3.14 5.98 4.60 -3.32 -2.90 3.70 5.38 3.78 1.09 0.29 1.93 2.38 8.39 10.87 9.41 11.02 9.68 11.62 2.10 -6.17 -8.36 -13.17 -9.92 -11.31 -9.62 -8.62 -6.46 -6.21 -7.17 -7.05 -7.46 -7.28 -9.03 -9.04 -11.42 -12.96 -20.21 -21.81 -21.40 -23.14 -20.93 -19.33 -21.51 -21.15 -20.11 -19.13 -22.92
27.89 27.21 25.84 24.48 18.06 3.13 -1.72 -2.88 -3.22 -0.33 -6.38 -3.61 -2.27 0.63 2.66 2.90 3.58 4.45 2.73 3.80 3.98 1.33 -8.14 -8.73 -13.49 -15.25 -12.98 -11.64 -10.39 -11.53 -9.75 -7.71 -9.38 -8.15 -4.21 -6.22 -7.53 -9.11 -11.45 -10.15 -11.81 -13.34 -13.92 -18.61 -18.06 -18.07 -21.49 -19.90 -20.93 -23.32 -23.38 -20.38 -20.30 -20.40
20.07 19.54 20.46 11.57 5.01 -0.69 -3.86 -4.73 -6.11 -7.22 -9.20 -6.05 -6.58 -1.66 -1.23 0.76 -1.68 -2.28 -3.93 -1.33 -7.59 -14.56 -14.10 -14.85 -14.31 -13.83 -12.23 -11.94 -9.94 -11.62 -10.41 -10.60 -11.10 -11.58 -11.52 -8.02 -8.29 -9.67 -11.52 -12.28 -11.95 -12.26 -12.31 -14.18 -15.55 -15.26 -16.39 -19.61 -20.18 -23.34 -23.43 -23.99 -26.38 -25.08
15.10 18.58 4.05 9.71 6.19 0.62 -3.12 -1.70 -5.42 -5.39 -7.98 -11.03 -9.45 -8.81 -10.07 -9.60 -9.25 -8.05 -2.40 -11.78 -14.81 -15.41 -15.82 -15.92 -15.48 -15.47 -15.67 -14.98 -13.96 -14.60 -14.45 -13.40 -10.85 -8.08 -6.62 -7.41 -8.45 -8.19 -9.40 -10.70 -8.74 -10.14 -10.58 -12.70 -14.80 -19.47 -21.15 -22.41 -23.90 -26.20 -26.02 -25.86 -24.46 -25.01
12.48 11.34 4.35 1.46 -1.38 -4.25 -7.26 1.17 -5.36 -4.12 -8.05 -8.07 -6.63 -5.04 -9.45 -10.99 -7.23 -2.16 -13.39 -13.71 -14.68 -11.97 -13.72 -15.21 -15.14 -14.69 -17.38 -17.60 -18.44 -15.88 -15.58 -15.12 -14.75 -14.08 -11.47 -10.58 -10.36 -9.30 -9.34 -10.76 -10.97 -10.73 -12.82 -17.44 -22.63 -22.18 -20.61 -18.09 -21.86 -23.30 -24.66 -23.96 -24.63 -23.23
5.33 -5.53 -6.22 -8.86 -7.39 -10.99 -5.96 -6.97 -2.12 -4.97 -5.47 -5.85 -4.84 -10.25 -14.54 -11.12 -5.05 -10.32 -18.31 -17.51 -13.30 -11.56 -14.16 -16.07 -16.45 -14.72 -15.23 -15.08 -15.62 -16.24 -15.73 -14.46 -11.78 -13.35 -14.69 -9.22 -9.59 -12.51 -14.73 -13.95 -15.81 -18.39 -20.69 -22.89 -21.86 -24.96 -25.15 -25.39 -20.60 -22.27 -22.76 -24.25 -24.50 -21.54
-7.91 -16.86 -13.45 -18.22 -11.58 -12.07 -12.52 -11.23 -10.50 -6.87 -10.95 -10.41 -10.64 -12.45 -13.61 -12.94 -14.17 -18.48 -18.82 -18.80 -15.66 -14.85 -15.01 -15.50 -15.51 -14.55 -16.22 -15.23 -13.41 -15.12 -17.09 -17.61 -12.61 -11.49 -13.98 -14.83 -12.89 -12.24 -11.98 -15.65 -18.91 -22.78 -24.17 -22.72 -22.36 -26.20 -26.44 -28.69 -25.71 -23.12 -20.58 -21.69 -20.40 -18.88
-22.40 -19.86 -20.49 -21.34 -18.70 -17.27 -16.80 -14.64 -15.06 -16.48 -13.76 -16.27 -17.96 -13.43 -11.78 -13.73 -18.61 -23.71 -21.41 -18.46 -18.06 -16.07 -15.83 -17.21 -18.97 -17.63 -14.05 -15.28 -17.57 -14.37 -14.21 -16.33 -16.29 -11.94 -13.30 -16.41 -16.69 -17.14 -20.51 -17.66 -21.59 -17.49 -28.02 -28.56 -27.65 -26.35 -26.04 -23.59 -22.72 -20.58 -19.55 -16.63 -11.03 -12.74
-24.57 -24.51 -19.76 -12.15 -15.38 -15.39 -14.17 -13.51 -14.30 -17.79 -21.37 -22.22 -22.69 -15.47 -14.19 -21.04 -24.38 -23.66 -18.35 -14.32 -15.67 -14.43 -12.46 -12.88 -15.98 -16.33 -16.23 -15.39 -12.84 -11.11 -10.53 -13.71 -13.45 -13.32 -14.95 -15.47 -15.98 -17.50 -16.37 -18.24 -18.21 -15.43 -22.15 -25.30 -27.73 -27.44 -25.02 -24.43 -20.95 -18.21 -16.80 -14.11 -12.75 -10.31
-21.61 -23.62 -25.29 -21.00 -19.79 -20.12 -20.89 -21.88 -25.36 -27.35 -25.21 -24.77 -21.15 -22.85 -23.74 -24.50 -26.58 -19.86 -14.02 -10.71 -11.70 -11.62 -11.01 -10.01 -12.18 -13.39 -13.82 -11.46 -9.67 -8.08 -7.67 -6.83 -11.15 -11.33 -10.77 -11.01 -12.85 -12.32 -14.56 -13.87 -13.35 -2.39 -14.30 -17.09 -15.93 -15.72 -19.77 -20.49 -21.80 -19.69 -17.35 -13.78 -11.98 -12.28
-22.08 -21.60 -21.73 -20.18 -20.90 -24.35 -28.48 -27.97 -28.26 -26.14 -25.86 -28.03 -21.90 -21.07 -21.29 -16.84 -17.12 -17.63 -13.09 -10.99 -10.00 -9.97 -11.03 -11.21 -10.02 -8.14 -8.25 -7.61 -7.55 -8.67 -8.64 -9.43 -12.43 -15.19 -16.21 -16.88 -16.47 -15.01 -9.88 -12.66 -13.93 -14.11 -16.47 -20.20 -8.96 -3.06 -3.60 -7.04 -8.45 -9.41 -11.14 -11.46 -11.56 -14.48
-23.06 -22.58 -20.26 -22.70 -25.58 -27.31 -27.31 -29.44 -26.75 -25.62 -24.67 -23.49 -21.34 -13.78 -14.09 -13.53 -10.07 -7.74 -9.10 -9.41 -10.83 -11.21 -11.35 -10.97 -11.01 -11.64 -13.12 -13.39 -13.43 -12.20 -11.54 -14.32 -12.76 -14.38 -19.50 -19.95 -17.80 -12.26 -11.80 -12.59 -13.24 -14.03 -16.94 -22.67 -15.45 -15.81 -10.18 -14.43 -12.90 -15.47 -13.32 -13.73 -15.46 -15.75
-21.96 -23.71 -22.84 -22.35 -24.97 -25.22 -25.71 -26.52 -26.17 -24.59 -21.60 -18.08 -16.86 -18.02 -20.62 -17.90 -11.91 -9.03 -10.26 -9.31 -9.81 -10.93 -11.99 -13.59 -13.04 -12.80 -14.51 -15.24 -16.04 -16.31 -15.96 -15.68 -13.08 -14.28 -16.90 -15.99 -14.68 -14.69 -12.85 -11.42 -10.07 -10.27 -18.05 -18.79 -20.31 -23.52 -22.38 -22.80 -25.37 -26.46 -25.73 -25.39 -22.93 -20.05
-22.77 -27.78 -23.79 -22.47 -25.00 -23.79 -23.50 -23.86 -23.39 -20.36 -19.38 -19.06 -20.00 -18.84 -19.86 -18.45 -19.20 -15.12 -11.17 -11.39 -13.59 -15.32 -14.99 -15.41 -16.69 -16.40 -13.83 -13.84 -19.39 -22.24 -14.50 -16.84 -16.85 -16.69 -16.59 -13.51 -12.58 -11.93 -10.86 -9.10 -10.31 -16.98 -17.88 -15.88 -17.75 -20.76 -23.38 -25.62 -24.44 -24.35 -24.01 -24.39 -24.58 -24.70
-24.57 -22.00 -22.89 -23.36 -23.90 -23.48 -23.80 -23.77 -20.27 -21.02 -19.95 -21.77 -21.23 -21.44 -21.24 -18.86 -20.75 -14.78 -11.13 -10.60 -15.07 -17.38 -18.53 -18.07 -15.67 -14.58 -16.02 -21.27 -19.59 -23.58 -22.52 -23.58 -20.65 -11.16 -10.63 -8.57 -9.45 -8.70 -10.28 -11.06 -17.46 -20.13 -20.42 -20.96 -21.82 -22.89 -23.97 -24.20 -23.58 -24.74 -25.54 -25.93 -26.10 -25.92

GFSWCAN_sfc_wetblb_030.txt.gz
Wetbulb
39.29 39.50 39.82 40.19 40.66 40.82 41.30 41.87 42.60 43.78 44.74 45.62 46.42 46.77 47.43 46.71 45.21 41.79 38.55 41.17 38.94 33.32 33.72 33.25 35.02 33.76 32.75 33.44 30.57 29.73 31.21 30.70 30.33 30.53 29.75 28.02 26.15 25.93 25.26 24.48 25.37 26.25 25.95 26.06 27.08 25.47 24.32 27.63 26.29 27.95 31.77 27.75 30.05 29.29
38.75 38.96 39.19 39.72 40.07 40.37 40.59 41.06 41.90 42.96 44.05 45.02 45.47 46.38 46.84 46.93 45.40 42.05 37.10 39.20 37.97 34.24 32.68 34.91 35.48 35.52 35.35 38.55 32.44 30.68 31.62 30.73 33.68 30.86 30.15 27.27 24.11 24.00 25.31 23.20 22.60 25.20 29.96 28.04 29.36 29.21 26.16 29.40 29.35 30.55 30.43 29.97 27.74 30.38
38.20 38.38 38.75 39.13 39.46 39.95 40.32 40.58 41.28 42.16 43.35 44.34 45.18 46.14 46.58 46.87 46.17 42.33 37.77 37.40 35.31 31.52 31.12 31.84 31.14 34.80 36.75 36.21 38.40 32.62 31.64 34.05 32.63 32.69 30.35 27.63 25.24 25.63 23.89 24.66 22.78 24.31 25.31 26.23 26.99 25.24 25.63 27.80 27.68 28.58 29.22 30.14 30.17 30.73
37.55 37.89 37.85 38.22 38.89 39.18 39.71 40.13 40.20 41.37 42.28 43.76 44.60 45.75 46.43 46.57 46.50 41.29 37.73 38.57 35.90 31.24 27.30 28.82 32.06 32.23 35.56 35.81 35.33 35.18 33.47 32.06 31.54 32.43 29.47 28.40 27.38 25.94 25.13 25.32 25.88 26.21 25.38 22.36 21.54 23.14 25.44 27.45 27.53 29.40 29.15 29.19 28.77 28.07
37.24 37.35 37.82 37.65 38.17 38.73 39.20 39.62 39.83 40.40 41.98 43.20 44.09 45.32 45.93 46.33 46.50 42.92 39.85 39.07 39.01 35.21 27.85 27.12 29.07 31.17 32.93 33.92 32.16 33.11 33.05 30.78 29.19 27.81 27.15 25.73 25.20 24.47 22.50 22.72 23.12 24.78 22.69 22.76 23.44 26.71 27.64 28.19 30.61 29.78 28.75 28.96 28.81 27.92
36.76 37.02 37.51 38.09 38.44 38.47 38.80 39.06 39.67 40.62 41.77 42.82 42.98 43.62 45.18 45.80 45.99 41.10 32.88 38.64 39.98 39.81 32.03 26.04 27.93 28.36 30.05 31.39 30.68 30.32 30.14 29.94 29.41 28.61 25.46 25.09 26.08 25.92 22.98 22.59 25.92 26.57 27.47 29.36 27.09 28.77 28.74 29.44 30.10 29.65 29.17 29.58 28.42 27.66
36.63 36.53 37.18 37.33 37.62 37.93 38.48 38.75 39.49 40.67 41.54 42.25 42.88 42.16 44.54 45.06 42.93 35.69 33.96 38.53 41.65 40.08 31.57 25.68 23.68 28.02 28.42 28.29 27.94 27.89 29.06 28.23 29.01 26.16 24.94 24.14 24.00 26.22 22.12 20.95 23.56 26.19 27.39 27.25 28.18 26.86 25.36 26.53 27.88 28.14 27.88 28.17 26.91 24.95
36.19 36.23 36.77 37.15 37.07 37.16 37.55 38.29 39.14 40.10 40.86 41.54 42.63 42.78 43.36 44.52 43.34 36.96 39.91 42.12 41.81 34.30 32.12 25.07 20.11 24.25 29.27 25.75 24.66 27.82 25.96 27.33 26.95 25.29 24.97 23.77 24.58 24.05 20.04 23.96 25.29 26.22 26.51 26.34 26.08 27.25 28.07 27.04 25.75 25.05 23.91 23.08 22.44 23.08
35.64 35.83 36.26 36.70 36.88 37.41 37.45 38.08 38.73 39.75 40.54 40.99 42.10 42.30 40.45 38.22 32.01 34.18 42.96 43.55 39.41 35.55 28.62 24.70 19.91 18.72 28.60 27.10 27.03 27.54 27.20 22.80 26.56 23.35 23.95 25.04 21.53 18.87 24.16 24.83 25.26 25.38 25.12 26.79 26.10 24.62 23.15 23.35 25.26 22.78 22.30 19.97 22.28 23.79
35.16 35.60 36.08 36.53 36.69 36.85 37.41 37.46 38.58 39.52 40.36 40.67 38.74 32.48 30.46 32.68 40.10 41.46 33.55 30.85 30.47 31.02 31.14 22.67 19.88 20.74 26.83 26.07 24.23 24.45 24.84 21.73 19.13 21.84 25.07 22.84 20.76 25.86 26.77 26.47 26.46 26.46 26.78 24.95 21.48 20.27 18.25 20.05 22.06 22.84 21.12 23.25 23.71 23.92
34.95 35.35 35.79 36.38 37.06 37.35 37.62 37.40 38.15 39.24 39.86 35.16 30.90 29.51 33.63 39.01 32.74 31.31 26.55 26.79 26.16 23.65 26.58 19.95 19.40 21.44 26.22 22.94 22.55 24.49 22.43 23.45 17.86 19.41 20.78 18.93 18.72 20.11 11.24 14.30 14.35 14.04 15.32 21.15 23.77 25.86 25.10 25.69 24.67 23.42 21.36 21.00 20.66 19.32
35.11 35.42 37.17 37.83 39.28 39.23 39.23 37.88 38.10 36.67 33.91 33.83 33.53 34.68 32.68 29.31 25.33 22.36 21.62 22.45 22.94 20.69 19.67 19.74 19.68 22.55 22.87 26.44 25.03 25.30 21.47 21.84 16.30 20.35 19.84 14.87 18.33 6.22 3.01 3.51 4.18 5.01 4.00 7.89 10.02 13.06 15.46 16.81 13.85 15.37 13.93 13.46 10.78 9.07
35.21 36.29 36.45 37.47 38.83 37.72 38.96 38.69 38.71 38.81 37.71 33.27 30.34 28.34 25.90 24.61 17.62 15.99 13.39 14.37 15.27 15.95 18.14 19.68 19.85 22.86 22.16 24.61 23.48 21.74 18.22 17.41 19.67 17.46 15.50 17.49 5.43 2.04 -2.15 -1.89 -2.41 -0.36 0.02 2.42 3.80 5.63 5.89 3.99 2.70 3.08 3.84 1.77 2.70 0.49
34.66 35.49 36.17 37.76 38.06 38.20 38.13 38.74 39.07 38.58 32.58 26.70 23.13 17.15 19.73 17.15 19.15 18.46 15.05 15.95 17.60 18.12 17.89 20.39 18.94 22.16 21.98 21.43 21.30 17.33 15.55 18.04 14.65 13.12 12.88 4.48 -1.12 -4.96 -4.90 -5.14 -8.22 -7.04 -6.59 -3.90 -2.69 -0.50 -1.04 -2.08 -4.17 -4.69 -4.20 -2.35 -1.29 -2.61
33.01 33.65 34.52 34.84 37.24 37.54 39.24 39.21 38.90 33.48 28.24 21.88 22.60 15.03 16.26 7.71 3.02 -0.20 0.01 12.23 12.24 20.31 21.42 19.32 19.79 21.09 18.32 19.38 19.47 14.81 12.31 11.46 13.56 12.30 5.39 -0.52 -4.26 -7.06 -7.30 -8.70 -10.28 -10.02 -9.86 -8.07 -6.95 -5.51 -5.05 -5.81 -6.69 -8.66 -9.31 -6.37 -5.44 -5.54
31.15 29.79 29.90 33.37 34.76 35.43 36.75 38.51 32.82 28.82 16.63 15.93 9.04 11.97 6.99 12.22 7.66 6.20 9.50 13.11 13.59 19.46 19.86 20.10 15.56 14.43 12.94 16.00 11.46 10.52 9.96 8.08 9.71 0.51 -1.73 -2.48 -6.11 -7.58 -9.39 -10.46 -11.49 -12.23 -12.17 -10.78 -10.12 -8.25 -7.59 -8.80 -9.49 -10.84 -9.85 -9.04 -8.55 -6.70
28.96 23.57 31.54 32.13 30.96 31.67 29.78 26.63 23.33 15.42 12.19 9.92 3.26 -0.42 -0.50 6.06 4.89 2.49 4.67 12.10 15.67 17.79 15.40 14.54 10.01 11.44 17.97 13.33 8.42 3.96 6.86 -0.19 -1.45 -2.24 -2.40 -4.53 -6.33 -7.87 -9.17 -9.38 -11.86 -12.70 -11.87 -11.62 -11.75 -11.02 -11.34 -11.51 -10.70 -7.17 -8.50 -9.78 -8.46 -8.65
19.06 23.90 30.13 30.53 25.84 23.12 14.97 12.03 15.82 10.95 3.31 3.70 4.76 -0.32 -0.05 0.04 2.72 2.98 7.04 10.32 14.28 14.62 13.39 12.78 17.74 9.67 6.90 6.31 1.01 -4.61 -5.62 -3.70 -2.20 -2.91 -4.61 -6.04 -7.12 -8.03 -8.07 -8.66 -9.67 -10.69 -11.38 -12.22 -11.14 -10.22 -9.27 -8.22 -7.61 -8.66 -9.36 -8.71 -8.23 -8.33
25.18 25.57 27.94 27.34 22.29 12.65 11.62 7.47 6.98 2.18 -1.30 1.45 4.29 4.20 1.83 2.13 2.62 1.75 3.18 5.61 6.35 3.56 4.77 4.76 -7.66 -10.17 -11.52 -11.07 -10.05 -8.50 -9.08 -9.00 -9.23 -7.33 -5.43 -7.09 -7.64 -9.18 -8.92 -9.33 -10.10 -10.37 -10.85 -9.93 -8.26 -9.40 -9.95 -10.80 -9.07 -7.43 -7.42 -5.95 -7.09 -8.28
25.71 26.27 25.62 21.90 19.17 10.78 5.12 1.91 6.01 3.87 -0.28 -0.73 1.75 2.17 2.00 1.48 2.41 -0.77 -3.91 -2.32 -2.89 -6.61 -15.95 -16.68 -18.85 -17.84 -15.71 -13.69 -11.69 -11.12 -9.54 -8.06 -9.43 -7.99 -5.97 -6.38 -7.39 -10.12 -11.10 -10.42 -9.25 -9.70 -8.76 -8.13 -7.39 -6.49 -5.89 -6.55 -7.20 -6.86 -6.54 -6.35 -4.83 -6.66
17.94 17.72 17.69 8.75 2.94 1.95 -1.15 -0.94 -2.43 -1.55 -0.49 -2.00 -2.31 0.52 -0.44 -1.05 -5.65 -6.78 -8.54 -6.33 -11.15 -15.75 -16.98 -15.81 -15.33 -13.77 -12.19 -12.22 -10.22 -11.27 -10.66 -11.06 -11.54 -11.29 -10.46 -9.21 -6.88 -8.42 -9.12 -8.47 -8.73 -8.48 -7.95 -6.97 -6.27 -6.12 -6.13 -7.64 -8.29 -7.90 -6.44 -7.31 -8.33 -9.00
9.04 16.91 3.02 6.43 0.51 -2.15 -1.43 0.77 -1.54 -1.88 -2.23 -4.48 -4.03 -6.23 -8.41 -8.98 -10.34 -12.14 -7.18 -14.62 -16.18 -15.76 -14.81 -15.29 -14.80 -14.15 -13.94 -12.60 -12.41 -11.65 -12.11 -11.96 -11.29 -9.73 -8.18 -8.91 -9.10 -9.30 -10.02 -10.16 -7.92 -9.25 -9.04 -8.25 -6.72 -6.85 -7.34 -7.83 -8.14 -8.14 -7.51 -8.34 -9.91 -8.88
8.86 7.57 0.01 -3.06 -4.67 -7.41 -7.35 -0.33 -7.48 -6.49 -4.33 -5.94 -8.83 -10.63 -12.53 -11.59 -8.54 -7.36 -15.39 -14.49 -14.46 -11.13 -12.17 -13.31 -13.33 -12.66 -13.24 -10.40 -10.16 -11.53 -12.52 -11.93 -13.08 -12.91 -12.31 -11.53 -11.34 -10.60 -10.78 -11.19 -9.67 -9.54 -9.31 -10.19 -9.34 -8.35 -8.12 -9.21 -7.97 -8.42 -8.87 -9.18 -10.55 -9.51
3.17 -9.14 -12.45 -14.95 -13.38 -15.69 -6.99 -9.22 -5.36 -9.22 -7.16 -9.38 -11.11 -15.27 -15.47 -13.67 -9.52 -16.28 -22.08 -18.78 -14.93 -11.89 -13.54 -14.38 -12.52 -10.90 -9.64 -9.54 -12.11 -13.49 -14.30 -11.50 -10.54 -10.92 -12.01 -9.75 -10.65 -12.18 -11.47 -11.52 -11.35 -12.80 -13.24 -10.91 -10.16 -9.50 -9.32 -9.92 -11.47 -10.73 -10.88 -11.93 -11.81 -12.44
-13.64 -21.53 -19.08 -24.43 -15.65 -17.27 -14.83 -15.33 -14.13 -12.37 -13.88 -15.46 -17.13 -14.89 -15.05 -13.24 -21.11 -23.30 -22.24 -21.21 -17.83 -16.62 -15.31 -14.61 -13.79 -12.47 -14.22 -12.42 -10.87 -10.80 -12.28 -12.48 -11.84 -12.18 -12.50 -11.17 -9.49 -9.46 -10.10 -11.15 -12.97 -14.04 -13.19 -11.07 -11.64 -12.26 -11.52 -12.61 -13.21 -13.81 -12.87 -13.61 -13.45 -13.10
-28.18 -22.02 -23.90 -22.90 -20.67 -21.38 -18.99 -21.00 -20.31 -19.44 -15.48 -17.97 -19.02 -14.11 -13.02 -18.46 -24.10 -27.22 -23.16 -19.61 -18.33 -16.59 -15.66 -16.32 -17.07 -16.11 -14.00 -12.85 -13.94 -12.32 -11.31 -10.65 -11.13 -11.61 -12.18 -12.02 -11.87 -13.21 -14.21 -13.46 -12.46 -10.83 -11.00 -14.06 -14.42 -14.48 -14.58 -15.08 -17.68 -18.81 -16.84 -15.43 -17.06 -16.40
-28.10 -27.17 -20.69 -14.41 -18.88 -18.93 -19.96 -18.98 -18.51 -21.78 -25.54 -25.66 -24.32 -17.07 -18.30 -25.61 -26.79 -22.93 -17.22 -13.27 -14.87 -13.56 -11.52 -12.02 -13.96 -13.85 -14.00 -12.19 -10.26 -8.54 -7.50 -9.89 -11.37 -10.81 -10.45 -10.64 -11.02 -11.91 -11.89 -14.23 -15.24 -11.56 -8.20 -10.26 -12.02 -14.85 -16.47 -17.70 -17.32 -16.19 -16.22 -15.45 -16.65 -15.91
-22.65 -23.63 -26.90 -22.70 -23.92 -22.98 -25.22 -25.17 -27.21 -29.25 -27.07 -25.02 -21.79 -25.00 -25.96 -28.66 -27.34 -19.26 -14.42 -10.31 -10.63 -9.80 -9.68 -10.18 -9.48 -10.24 -11.34 -11.25 -10.65 -10.77 -10.46 -9.55 -9.60 -9.73 -9.83 -9.56 -10.23 -9.70 -11.57 -11.54 -12.39 -5.22 -12.57 -13.76 -13.16 -12.41 -14.87 -15.01 -13.73 -12.69 -13.88 -15.05 -14.42 -13.94
-22.40 -20.74 -20.85 -24.40 -24.20 -25.48 -28.41 -27.83 -26.82 -24.93 -24.12 -27.57 -24.93 -23.87 -22.92 -18.07 -17.26 -16.37 -12.47 -9.42 -9.30 -11.32 -14.09 -14.86 -14.66 -12.95 -13.72 -14.13 -14.25 -14.19 -14.15 -15.08 -18.58 -21.70 -21.83 -19.26 -16.73 -14.66 -13.67 -14.75 -16.50 -15.92 -15.94 -18.50 -12.80 -7.55 -7.56 -6.40 -8.43 -10.19 -18.10 -16.62 -15.03 -17.07
-23.98 -21.24 -23.79 -26.01 -27.37 -27.17 -24.97 -26.68 -24.71 -22.75 -23.19 -22.27 -18.32 -15.88 -16.84 -16.50 -13.89 -10.48 -12.06 -13.42 -15.12 -16.65 -16.55 -18.70 -20.30 -19.81 -22.05 -22.39 -22.22 -22.49 -24.26 -22.54 -26.68 -27.24 -29.36 -26.65 -25.81 -19.94 -19.08 -19.05 -18.08 -17.21 -15.95 -21.60 -17.45 -18.00 -13.82 -15.71 -16.81 -20.35 -20.26 -20.52 -20.11 -20.52
-21.34 -24.04 -23.61 -23.72 -24.62 -23.98 -22.80 -21.84 -22.21 -17.70 -13.60 -15.73 -15.09 -17.99 -19.73 -18.32 -15.37 -13.28 -14.03 -17.20 -19.38 -21.60 -22.48 -23.93 -25.00 -32.05 -32.06 -29.50 -32.31 -33.82 -30.33 -28.21 -28.78 -27.00 -28.86 -26.58 -23.33 -22.50 -21.29 -18.41 -16.24 -14.18 -18.58 -22.23 -22.88 -23.95 -21.49 -22.00 -24.15 -25.68 -25.45 -25.62 -25.11 -23.24
-23.46 -28.72 -24.17 -24.03 -24.58 -21.26 -20.27 -21.17 -21.12 -20.43 -20.05 -19.21 -20.19 -21.61 -20.39 -19.96 -23.67 -20.42 -16.27 -23.57 -28.16 -30.07 -27.91 -34.16 -35.61 -24.08 -27.28 -32.39 -34.14 -33.15 -25.45 -24.95 -28.62 -23.23 -26.25 -20.96 -20.24 -19.25 -16.52 -15.53 -15.18 -20.71 -23.13 -22.16 -23.38 -23.82 -24.09 -26.73 -26.29 -25.37 -25.04 -26.53 -26.30 -26.24
-24.76 -22.27 -22.75 -22.42 -22.78 -22.20 -22.42 -22.48 -19.85 -20.92 -19.61 -22.12 -21.42 -22.70 -22.99 -22.47 -25.81 -21.91 -16.92 -24.67 -26.73 -29.18 -30.66 -30.81 -30.94 -28.12 -28.46 -28.86 -28.41 -27.07 -24.89 -29.67 -30.99 -15.25 -15.50 -12.45 -12.55 -11.42 -12.56 -13.35 -18.99 -25.49 -25.46 -23.82 -23.38 -23.68 -25.55 -26.38 -26.73 -27.07 -27.33 -27.91 -28.33 -28.01

GFSWCAN_sfc_wetblb_033.txt.gz
Wetbulb
40.23 40.04 39.95 40.01 40.23 40.53 40.95 41.13 41.51 42.05 42.49 43.13 44.36 45.70 46.71 46.67 47.69 45.13 42.66 43.99 41.13 35.32 35.94 34.77 35.96 34.03 33.23 34.05 31.73 31.38 32.24 31.45 31.44 31.13 31.46 29.77 29.36 29.15 30.21 31.33 29.82 29.81 28.45 28.46 31.16 29.22 27.64 30.37 29.26 32.06 33.73 31.59 33.28 35.93
39.98 39.78 39.56 39.43 39.55 39.88 40.39 40.66 40.98 41.21 42.00 42.85 43.51 44.96 45.95 46.07 47.37 45.05 40.67 41.55 40.72 37.48 35.25 36.24 36.40 36.56 35.13 35.39 34.04 31.67 32.15 32.45 34.40 32.88 32.17 30.35 27.55 27.42 29.50 26.98 26.43 27.89 32.39 31.99 32.66 31.32 27.66 30.13 29.15 31.48 31.62 33.69 30.70 32.88
38.94 39.10 38.86 38.81 38.94 39.46 39.75 40.22 40.59 40.87 41.47 42.41 43.05 44.34 45.52 45.78 46.54 44.09 42.06 40.27 38.92 34.69 33.69 33.24 33.00 35.92 37.46 36.89 38.40 33.84 33.60 35.16 33.26 33.91 32.96 30.48 27.63 28.75 26.63 27.89 26.68 26.62 28.23 29.92 30.35 26.48 28.32 28.13 29.35 29.94 31.27 31.48 32.36 32.53
37.79 38.07 38.34 38.50 38.46 38.66 38.67 39.32 40.00 40.45 40.92 41.65 42.56 43.12 44.57 45.66 46.04 43.58 40.60 41.43 39.31 36.45 31.93 30.98 33.94 32.93 35.84 36.37 35.75 35.73 34.87 33.82 34.22 34.14 32.34 31.29 29.11 28.16 28.43 27.25 29.01 27.90 27.73 27.17 23.49 24.35 26.22 28.79 29.35 30.95 31.01 30.44 30.38 30.52
37.24 37.46 37.76 37.93 38.25 38.27 38.29 38.70 39.34 39.79 40.15 40.63 41.62 42.40 44.02 45.07 45.89 43.35 41.78 40.63 40.99 37.12 31.75 30.24 31.20 32.29 34.02 35.12 34.51 35.95 34.51 33.56 32.81 31.33 30.75 28.84 27.68 26.28 24.73 24.18 25.21 26.85 25.24 24.52 25.09 27.85 30.39 29.59 32.46 32.46 29.97 29.86 29.82 29.24
36.53 36.89 37.19 37.84 37.75 38.01 38.53 38.70 38.94 39.42 39.65 39.89 40.79 42.30 43.61 44.99 45.62 40.99 32.55 39.20 41.28 40.21 33.33 27.89 30.66 29.94 31.82 33.12 32.68 34.29 33.53 32.28 32.29 31.50 27.95 27.05 27.01 28.28 27.07 26.72 26.40 28.70 28.62 30.73 27.61 31.13 30.48 30.92 32.58 32.36 30.46 30.34 30.12 28.70
35.98 36.58 37.24 37.45 37.12 37.92 38.14 38.32 38.73 39.21 39.66 40.09 41.04 42.35 43.45 44.37 42.97 35.63 34.56 40.37 42.55 42.14 32.98 26.27 26.38 28.95 29.79 30.47 29.81 29.58 30.80 29.69 31.30 28.29 27.76 26.26 25.26 28.57 25.46 23.66 27.58 28.21 29.10 28.13 28.95 28.74 27.60 28.39 28.67 29.81 29.44 29.71 29.39 26.79
35.81 36.54 36.92 36.82 36.93 37.39 37.65 37.60 37.97 38.38 39.22 40.27 41.53 42.06 43.24 43.38 43.77 37.92 41.33 42.59 42.43 34.90 32.33 27.80 22.99 26.13 29.96 27.49 26.17 29.38 27.80 29.78 29.04 27.34 26.72 25.65 25.76 26.13 22.42 25.95 27.68 28.06 27.80 27.34 27.91 28.72 29.00 28.68 27.88 26.32 25.72 24.74 23.16 24.17
35.61 36.03 36.25 36.36 36.48 36.80 37.41 37.28 37.62 38.14 38.84 40.27 41.21 41.70 40.99 37.39 32.25 35.31 42.63 43.44 40.94 36.07 30.16 27.35 22.02 21.28 29.76 27.96 28.18 28.44 29.38 24.96 28.03 25.66 25.73 27.22 23.61 21.76 24.88 25.88 26.09 26.91 26.84 27.49 27.08 25.48 24.82 25.02 26.40 24.47 23.67 21.67 22.68 24.15
35.43 35.71 35.90 35.95 36.33 36.58 36.72 36.95 37.24 37.93 38.70 40.01 38.99 32.53 30.31 32.38 40.12 42.33 37.93 32.40 31.32 31.62 31.84 27.99 29.12 23.02 28.18 27.30 26.39 26.24 27.94 24.21 20.49 24.18 26.08 23.83 23.49 24.79 17.85 16.98 16.88 16.82 17.82 24.36 23.53 23.19 21.89 22.09 23.51 23.75 23.22 24.45 24.52 24.05
35.40 35.51 35.60 35.72 35.93 36.27 36.86 37.37 37.59 37.72 38.12 34.98 31.76 31.23 34.77 40.57 34.97 32.15 28.31 28.09 28.77 25.47 28.62 25.07 27.15 22.56 28.78 25.38 24.73 26.59 24.52 24.54 19.35 22.18 22.14 20.90 20.56 15.86 10.73 10.95 11.23 11.19 11.26 13.73 14.94 18.80 21.41 23.01 24.56 24.54 23.03 22.08 21.01 19.20
35.29 35.31 35.46 35.90 36.35 36.94 38.28 38.45 38.59 35.89 33.66 34.80 34.89 34.87 32.33 31.36 28.69 25.04 24.54 25.18 25.36 22.94 22.31 23.79 24.91 27.26 26.18 30.43 26.79 26.05 23.71 23.82 18.13 23.93 22.01 17.87 17.64 6.72 4.36 3.98 4.38 4.32 3.14 5.56 8.53 10.49 12.10 12.08 10.87 14.24 14.67 14.03 11.20 10.05
34.83 34.99 35.95 37.44 36.60 37.00 39.66 39.53 39.40 38.21 36.94 34.82 32.28 29.14 28.06 26.45 19.73 18.59 15.67 18.45 18.99 22.47 23.14 24.23 23.16 24.29 25.26 27.98 26.06 24.80 20.54 19.29 23.21 19.78 18.11 19.97 7.87 4.28 -0.31 -0.57 -1.23 0.21 0.30 2.32 3.75 5.46 6.06 4.21 3.17 3.25 5.27 4.38 5.62 2.79
33.53 34.00 34.70 35.43 35.74 38.12 37.89 39.06 39.46 37.20 32.46 29.26 25.39 19.95 21.85 18.89 20.51 21.45 22.73 23.41 23.83 25.07 24.12 26.72 22.77 25.16 25.85 23.93 23.67 19.78 18.66 20.66 17.21 14.70 15.92 10.58 1.06 -2.96 -2.71 -3.51 -5.85 -5.49 -4.93 -2.40 -1.32 0.42 0.22 -0.13 -1.72 -2.87 -1.98 0.71 1.28 0.25
32.07 32.06 33.19 33.68 35.40 36.53 38.08 38.94 39.21 35.64 29.59 25.20 24.81 18.39 18.97 12.85 10.51 10.53 12.50 19.15 19.61 27.08 25.65 23.91 24.31 24.26 22.73 20.93 20.52 17.12 14.43 13.92 16.76 15.71 9.32 3.42 -2.15 -3.62 -4.50 -6.09 -7.95 -8.02 -7.68 -5.31 -4.16 -3.57 -3.86 -3.77 -4.59 -5.78 -5.75 -3.47 -2.37 -3.06
30.89 30.16 29.22 33.20 34.65 35.23 37.94 36.86 32.19 27.09 16.34 16.36 11.47 14.47 12.78 15.74 11.78 14.65 17.72 18.12 20.74 26.82 26.70 26.40 21.38 20.40 18.51 19.67 16.06 15.11 14.84 12.86 11.31 3.55 1.42 0.54 -4.14 -5.81 -6.72 -7.82 -8.46 -8.74 -8.37 -6.98 -6.99 -5.53 -6.42 -7.93 -7.64 -6.94 -6.58 -6.07 -5.27 -4.32
27.71 24.39 30.16 31.15 32.61 30.45 31.66 27.92 22.43 13.61 12.06 11.61 5.16 5.01 6.22 10.41 8.43 8.62 13.29 14.73 18.41 24.26 20.55 21.79 17.28 16.20 20.41 15.13 10.26 4.32 6.90 0.80 1.18 -1.00 -1.87 -4.37 -5.67 -6.72 -7.22 -6.69 -9.14 -8.78 -7.68 -7.32 -7.10 -7.08 -7.31 -6.68 -5.00 -5.03 -6.58 -6.85 -5.34 -6.30
23.22 25.95 28.56 29.36 26.50 25.43 15.63 16.34 15.82 11.70 4.68 5.97 6.00 3.14 4.61 3.47 7.21 5.86 7.96 9.47 16.58 19.66 20.90 17.39 19.54 12.90 7.52 9.74 1.85 -3.71 -3.37 -1.40 -1.32 -1.91 -3.84 -4.46 -4.81 -5.68 -5.37 -5.46 -6.36 -7.12 -7.39 -8.07 -7.00 -5.76 -5.14 -4.61 -4.32 -5.44 -5.76 -4.83 -4.44 -4.40
25.66 25.51 26.94 26.35 24.03 18.37 13.83 8.29 10.75 3.94 2.10 5.36 7.04 7.17 5.59 2.77 1.87 1.24 2.11 5.05 3.01 1.98 4.01 1.06 -8.47 -9.47 -11.18 -10.43 -8.73 -7.91 -7.40 -6.89 -6.56 -4.53 -3.93 -5.47 -7.18 -8.75 -6.87 -7.25 -6.68 -6.97 -7.52 -6.17 -5.20 -5.75 -6.24 -6.46 -4.44 -3.29 -2.77 -1.65 -3.59 -3.33
25.37 25.70 24.76 21.79 21.19 15.11 8.40 4.41 10.61 6.95 2.81 2.52 5.08 4.25 3.14 0.85 1.66 -0.65 -4.02 -2.27 -3.18 -6.55 -15.55 -15.66 -17.06 -15.54 -13.51 -11.93 -10.30 -9.83 -8.08 -7.13 -6.80 -4.58 -3.63 -4.12 -4.84 -5.82 -8.43 -6.64 -6.30 -5.76 -4.67 -4.51 -4.50 -3.32 -3.08 -3.76 -3.51 -3.06 -2.97 -2.56 -1.30 -3.26
19.60 19.10 18.23 14.89 9.16 6.44 2.69 3.20 1.22 2.22 4.22 0.55 0.53 3.83 0.47 0.27 -5.23 -6.32 -7.96 -5.56 -11.28 -15.12 -16.06 -14.09 -13.75 -12.03 -10.65 -9.81 -8.35 -8.98 -8.29 -9.20 -9.13 -8.86 -8.28 -6.40 -5.04 -5.01 -5.35 -4.38 -4.36 -4.20 -3.74 -3.27 -3.29 -4.30 -4.61 -5.83 -5.56 -4.43 -3.36 -4.04 -4.38 -4.25
12.80 16.71 8.52 9.87 6.80 5.53 2.98 3.44 2.14 2.34 2.24 -0.30 -0.55 -1.52 -4.53 -5.88 -8.27 -10.93 -6.53 -12.97 -15.35 -14.91 -13.83 -14.04 -13.49 -12.80 -11.55 -11.52 -11.07 -10.19 -10.51 -9.09 -8.21 -6.42 -6.24 -6.17 -6.65 -6.97 -7.57 -7.12 -5.03 -6.55 -7.00 -6.53 -5.49 -5.55 -5.74 -5.78 -5.26 -4.79 -4.48 -5.09 -5.10 -4.51
9.71 9.17 3.39 -0.36 0.72 -0.29 -2.58 5.08 0.76 0.10 -0.17 -2.45 -1.86 -5.64 -8.12 -8.24 -7.96 -4.95 -14.66 -13.79 -13.86 -10.75 -11.15 -11.90 -11.41 -10.12 -10.47 -8.53 -8.85 -9.53 -9.58 -8.11 -9.06 -8.62 -8.00 -7.81 -7.65 -7.09 -7.37 -8.30 -7.75 -7.32 -7.24 -8.08 -6.56 -6.47 -6.77 -6.74 -5.59 -6.18 -5.52 -5.47 -6.00 -5.38
3.61 -7.60 -10.75 -11.40 -9.71 -11.18 -2.97 -6.21 -2.02 -2.64 -2.85 -5.14 -7.24 -10.41 -11.57 -10.46 -7.56 -13.83 -19.77 -16.86 -13.70 -10.99 -12.04 -12.77 -9.44 -8.43 -7.56 -8.25 -10.42 -11.24 -11.24 -7.19 -7.23 -8.13 -8.16 -5.94 -7.99 -9.46 -8.31 -9.07 -9.49 -9.77 -10.35 -8.16 -7.81 -8.09 -8.08 -8.71 -8.92 -7.66 -7.69 -8.46 -7.70 -7.78
-13.22 -20.64 -15.59 -22.59 -13.06 -13.95 -13.58 -12.66 -13.73 -9.11 -12.19 -10.34 -11.07 -12.02 -12.36 -10.08 -17.78 -20.22 -20.28 -17.73 -15.03 -14.45 -13.50 -12.10 -10.79 -11.13 -12.15 -11.08 -9.82 -8.94 -8.43 -9.32 -8.80 -10.66 -9.63 -6.18 -6.75 -6.65 -7.89 -8.81 -10.25 -10.85 -10.27 -11.00 -11.97 -11.36 -11.02 -10.31 -10.45 -11.09 -10.93 -10.31 -10.88 -10.96
-26.44 -19.37 -21.04 -21.82 -19.79 -18.95 -17.71 -18.89 -19.35 -18.27 -14.93 -17.12 -15.98 -10.70 -11.96 -17.19 -22.90 -25.05 -20.73 -17.27 -15.87 -14.74 -14.31 -13.93 -13.83 -12.64 -12.66 -10.86 -11.81 -11.04 -10.07 -8.42 -6.62 -10.45 -10.68 -8.25 -8.80 -9.75 -10.93 -11.90 -12.22 -10.75 -8.06 -9.48 -11.85 -13.80 -13.76 -12.36 -13.47 -14.81 -12.68 -11.03 -12.25 -15.40
-26.74 -24.99 -17.47 -13.71 -18.20 -17.96 -18.95 -18.24 -17.95 -21.15 -25.54 -25.30 -22.14 -15.87 -17.34 -25.63 -26.36 -20.97 -14.51 -12.11 -13.21 -11.61 -9.91 -10.45 -10.87 -12.01 -12.83 -12.24 -10.40 -8.99 -7.52 -7.65 -9.11 -8.44 -8.48 -8.48 -9.28 -9.96 -11.86 -14.74 -16.55 -13.46 -10.03 -12.21 -13.00 -13.80 -15.99 -16.58 -15.37 -14.35 -13.59 -12.54 -13.20 -13.30
-19.93 -20.62 -25.69 -20.24 -22.31 -20.97 -24.25 -24.26 -25.99 -28.06 -25.88 -23.50 -19.91 -25.09 -26.58 -25.67 -24.23 -16.73 -13.41 -9.61 -9.11 -8.62 -9.74 -10.59 -10.71 -11.46 -12.68 -13.31 -12.88 -12.12 -11.50 -11.72 -8.18 -8.80 -8.69 -8.59 -9.30 -10.55 -14.24 -13.47 -13.36 -6.60 -12.69 -12.46 -12.47 -10.09 -11.15 -12.81 -13.07 -12.04 -12.90 -14.41 -14.50 -13.51
-19.44 -18.63 -18.46 -24.68 -22.22 -22.49 -25.61 -24.98 -24.47 -22.57 -21.55 -23.66 -20.93 -22.99 -22.90 -18.06 -14.98 -13.41 -11.21 -9.82 -9.13 -11.13 -14.71 -16.09 -16.13 -14.98 -15.48 -14.84 -15.68 -16.02 -16.07 -16.79 -19.65 -24.98 -25.46 -20.93 -18.74 -15.93 -15.07 -16.21 -15.93 -15.04 -14.31 -15.03 -11.35 -8.29 -8.68 -9.31 -9.16 -11.41 -14.02 -16.59 -16.29 -16.78
-21.74 -18.64 -22.34 -23.83 -26.61 -25.46 -21.43 -21.88 -20.62 -18.65 -19.72 -18.87 -15.05 -16.43 -17.15 -16.44 -13.89 -10.51 -12.22 -13.32 -15.13 -17.20 -17.57 -18.63 -20.26 -22.05 -24.30 -24.03 -23.10 -21.96 -21.28 -22.72 -22.66 -23.24 -25.86 -24.67 -22.42 -18.95 -19.68 -19.18 -18.21 -16.85 -15.92 -16.37 -16.50 -16.62 -12.84 -14.43 -14.62 -18.72 -18.83 -19.64 -19.46 -19.55
-18.52 -16.40 -20.45 -20.71 -22.25 -20.20 -18.73 -17.53 -13.80 -14.06 -14.26 -16.34 -15.20 -18.51 -20.14 -17.95 -14.77 -13.02 -14.21 -16.37 -18.84 -22.42 -23.43 -23.66 -24.34 -26.70 -26.54 -25.54 -28.43 -28.34 -24.91 -23.28 -28.32 -27.10 -26.68 -24.44 -23.23 -22.51 -21.32 -19.13 -17.23 -16.18 -15.86 -20.27 -20.51 -20.58 -20.28 -21.45 -21.55 -22.29 -22.98 -24.16 -24.19 -23.38
-21.08 -27.30 -23.60 -22.26 -21.24 -17.82 -17.14 -17.57 -16.64 -15.97 -16.25 -18.06 -17.82 -17.75 -17.94 -18.97 -22.95 -19.66 -15.51 -21.77 -24.74 -25.44 -24.75 -28.62 -30.62 -23.57 -24.12 -24.83 -26.10 -26.04 -24.14 -24.05 -24.25 -21.13 -24.29 -20.37 -20.06 -19.28 -17.25 -15.59 -14.95 -16.27 -20.32 -19.68 -20.44 -20.89 -21.83 -24.04 -24.41 -24.79 -24.86 -25.97 -25.73 -25.73
-23.53 -23.02 -25.21 -25.33 -24.32 -23.46 -23.28 -23.53 -21.01 -21.38 -19.13 -22.48 -21.45 -22.08 -24.16 -23.68 -26.81 -20.77 -15.37 -20.44 -21.30 -23.08 -23.74 -23.21 -22.51 -22.92 -23.96 -25.63 -24.46 -23.29 -22.47 -23.92 -26.52 -14.28 -14.37 -13.35 -13.62 -12.08 -12.15 -12.70 -15.32 -19.89 -22.29 -22.09 -22.79 -23.33 -25.08 -26.01 -26.40 -26.66 -27.14 -27.66 -28.03 -27.89